Wetterdaten: Montag, 04.11.2013
Datum Zeit Temperatur Luftfeuchte Luftdruck Regen Wind Richtung Richtung Taupunkt Windchill Windben
04.11.2013 00:00 0,4 C 86 % 1011,9 hPa 0,0 l/m 1,0 km/h (0 Bft) W 270 -1,7 C -0,1 C 0,0 km/h (0 Bft)
04.11.2013 00:05 0,1 C 86 % 1011,9 hPa 0,0 l/m 0,2 km/h (0 Bft) N-NW 337 -2,0 C -0,4 C 0,0 km/h (0 Bft)
04.11.2013 00:10 -0,1 C 86 % 1012,1 hPa 0,0 l/m 0,0 km/h (0 Bft) N-NW 337 -2,2 C -0,5 C 0,0 km/h (0 Bft)
04.11.2013 00:15 0,1 C 86 % 1012,1 hPa 0,0 l/m 0,0 km/h (0 Bft) NO 45 -2,0 C -0,6 C 1,8 km/h (1 Bft)
04.11.2013 00:20 0,1 C 87 % 1012,1 hPa 0,0 l/m 0,0 km/h (0 Bft) O 90 -1,8 C -0,7 C 0,0 km/h (0 Bft)
04.11.2013 00:25 0,3 C 87 % 1012,1 hPa 0,0 l/m 0,5 km/h (0 Bft) O 90 -1,6 C -0,7 C 2,6 km/h (1 Bft)
04.11.2013 00:30 0,0 C 87 % 1011,9 hPa 0,0 l/m 0,3 km/h (0 Bft) S 180 -1,9 C -0,6 C 3,1 km/h (1 Bft)
04.11.2013 00:35 -0,4 C 87 % 1011,9 hPa 0,0 l/m 0,2 km/h (0 Bft) SO 135 -2,3 C -0,8 C 0,0 km/h (0 Bft)
04.11.2013 00:40 -0,6 C 87 % 1011,9 hPa 0,0 l/m 0,0 km/h (0 Bft) SO 135 -2,5 C -1,1 C 0,0 km/h (0 Bft)
04.11.2013 00:45 -0,7 C 87 % 1011,9 hPa 0,0 l/m 0,0 km/h (0 Bft) S 180 -2,6 C -1,3 C 0,0 km/h (0 Bft)
04.11.2013 00:50 -0,3 C 88 % 1011,6 hPa 0,0 l/m 0,3 km/h (0 Bft) NO 45 -2,0 C -1,4 C 2,9 km/h (1 Bft)
04.11.2013 00:55 -0,1 C 88 % 1011,6 hPa 0,0 l/m 0,6 km/h (0 Bft) O-SO 112 -1,8 C -1,3 C 1,6 km/h (1 Bft)
04.11.2013 01:00 0,1 C 88 % 1011,6 hPa 0,0 l/m 0,8 km/h (0 Bft) N-NW 337 -1,6 C -1,1 C 2,6 km/h (1 Bft)
04.11.2013 01:05 -0,1 C 88 % 1011,6 hPa 0,0 l/m 1,3 km/h (1 Bft) NO 45 -1,8 C -0,9 C 4,7 km/h (1 Bft)
04.11.2013 01:10 -0,3 C 88 % 1011,4 hPa 0,0 l/m 1,3 km/h (1 Bft) W 270 -2,0 C -0,7 C 6,3 km/h (2 Bft)
04.11.2013 01:15 -0,5 C 88 % 1011,4 hPa 0,0 l/m 0,8 km/h (0 Bft) S 180 -2,2 C -0,7 C 1,8 km/h (1 Bft)
04.11.2013 01:20 -0,7 C 88 % 1011,4 hPa 0,0 l/m 0,2 km/h (0 Bft) O-SO 112 -2,4 C -0,9 C 0,0 km/h (0 Bft)
04.11.2013 01:25 -0,6 C 89 % 1011,4 hPa 0,0 l/m 0,0 km/h (0 Bft) W-NW 292 -2,2 C -1,1 C 0,0 km/h (0 Bft)
04.11.2013 01:30 -0,9 C 89 % 1011,2 hPa 0,0 l/m 0,0 km/h (0 Bft) W 270 -2,5 C -1,3 C 0,0 km/h (0 Bft)
04.11.2013 01:35 -1,0 C 89 % 1011,2 hPa 0,0 l/m 0,0 km/h (0 Bft) NW 315 -2,6 C -1,5 C 0,0 km/h (0 Bft)
04.11.2013 01:40 -1,0 C 89 % 1011,2 hPa 0,0 l/m 0,0 km/h (0 Bft) NW 315 -2,6 C -1,6 C 0,0 km/h (0 Bft)
04.11.2013 01:45 -1,3 C 89 % 1011,2 hPa 0,0 l/m 0,0 km/h (0 Bft) NW 315 -2,9 C -1,7 C 0,0 km/h (0 Bft)
04.11.2013 01:50 -1,3 C 89 % 1011,2 hPa 0,0 l/m 0,0 km/h (0 Bft) N-NW 337 -2,9 C -1,9 C 0,0 km/h (0 Bft)
04.11.2013 01:55 -1,4 C 89 % 1011,2 hPa 0,0 l/m 0,0 km/h (0 Bft) N-NW 337 -3,0 C -2,1 C 0,0 km/h (0 Bft)
04.11.2013 02:00 -1,4 C 89 % 1011,2 hPa 0,0 l/m 0,0 km/h (0 Bft) W 270 -3,0 C -2,1 C 0,0 km/h (0 Bft)
04.11.2013 02:05 -1,1 C 89 % 1011,2 hPa 0,0 l/m 0,0 km/h (0 Bft) N-NO 22 -2,7 C -2,0 C 0,0 km/h (0 Bft)
04.11.2013 02:10 -1,1 C 90 % 1010,8 hPa 0,0 l/m 0,0 km/h (0 Bft) N-NO 22 -2,5 C -1,9 C 0,0 km/h (0 Bft)
04.11.2013 02:15 -1,2 C 90 % 1010,8 hPa 0,0 l/m 0,0 km/h (0 Bft) N-NW 337 -2,6 C -1,8 C 0,0 km/h (0 Bft)
04.11.2013 02:20 -1,1 C 90 % 1010,8 hPa 0,0 l/m 0,2 km/h (0 Bft) NO 45 -2,5 C -1,8 C 0,0 km/h (0 Bft)
04.11.2013 02:25 -1,2 C 90 % 1010,8 hPa 0,0 l/m 0,2 km/h (0 Bft) N-NW 337 -2,6 C -1,8 C 0,0 km/h (0 Bft)
04.11.2013 02:30 -1,0 C 90 % 1010,6 hPa 0,0 l/m 0,3 km/h (0 Bft) W 270 -2,4 C -1,7 C 0,0 km/h (0 Bft)
04.11.2013 02:35 -0,9 C 91 % 1010,6 hPa 0,0 l/m 0,3 km/h (0 Bft) N 360 -2,2 C -1,6 C 0,0 km/h (0 Bft)
04.11.2013 02:40 -1,1 C 91 % 1010,6 hPa 0,0 l/m 0,0 km/h (0 Bft) S-SO 157 -2,4 C -1,6 C 0,0 km/h (0 Bft)
04.11.2013 02:45 -1,2 C 90 % 1010,6 hPa 0,0 l/m 0,2 km/h (0 Bft) O-SO 112 -2,6 C -1,5 C 2,1 km/h (1 Bft)
04.11.2013 02:50 -0,8 C 91 % 1010,2 hPa 0,0 l/m 0,2 km/h (0 Bft) S-SW 202 -2,1 C -1,5 C 0,0 km/h (0 Bft)
04.11.2013 02:55 -0,9 C 91 % 1010,2 hPa 0,0 l/m 0,2 km/h (0 Bft) S-SW 202 -2,2 C -1,3 C 0,0 km/h (0 Bft)
04.11.2013 03:00 -0,7 C 91 % 1010,2 hPa 0,0 l/m 0,2 km/h (0 Bft) SW 225 -2,0 C -1,0 C 0,0 km/h (0 Bft)
04.11.2013 03:05 -0,7 C 91 % 1010,2 hPa 0,0 l/m 0,3 km/h (0 Bft) W-SW 247 -2,0 C -0,8 C 1,9 km/h (1 Bft)
04.11.2013 03:10 -0,4 C 91 % 1009,8 hPa 0,0 l/m 0,6 km/h (0 Bft) W 270 -1,7 C -0,5 C 2,9 km/h (1 Bft)
04.11.2013 03:15 0,2 C 92 % 1009,8 hPa 0,0 l/m 2,1 km/h (1 Bft) S 180 -0,9 C 0,0 C 3,7 km/h (1 Bft)
04.11.2013 03:20 0,4 C 92 % 1009,8 hPa 0,0 l/m 1,8 km/h (1 Bft) S 180 -0,7 C 0,4 C 0,0 km/h (0 Bft)
04.11.2013 03:25 0,4 C 92 % 1009,8 hPa 0,0 l/m 0,8 km/h (0 Bft) O 90 -0,7 C 0,5 C 2,1 km/h (1 Bft)
04.11.2013 03:30 0,8 C 92 % 1009,2 hPa 0,0 l/m 0,6 km/h (0 Bft) W-SW 247 -0,3 C 0,7 C 3,2 km/h (1 Bft)
04.11.2013 03:35 0,9 C 92 % 1009,2 hPa 0,0 l/m 1,1 km/h (1 Bft) NW 315 -0,2 C 0,7 C 2,9 km/h (1 Bft)
04.11.2013 03:40 1,1 C 92 % 1009,2 hPa 0,0 l/m 1,1 km/h (1 Bft) O-NO 67 -0,1 C 0,8 C 0,0 km/h (0 Bft)
04.11.2013 03:45 1,2 C 92 % 1009,2 hPa 0,0 l/m 0,6 km/h (0 Bft) O-SO 112 0,0 C 0,9 C 0,0 km/h (0 Bft)
04.11.2013 03:50 1,2 C 92 % 1008,7 hPa 0,0 l/m 1,0 km/h (0 Bft) O 90 0,0 C 1,1 C 2,4 km/h (1 Bft)
04.11.2013 03:55 1,2 C 92 % 1008,7 hPa 0,0 l/m 0,8 km/h (0 Bft) N-NO 22 0,0 C 1,2 C 2,4 km/h (1 Bft)
04.11.2013 04:00 1,7 C 91 % 1008,7 hPa 0,0 l/m 1,1 km/h (1 Bft) W-SW 247 0,4 C 1,5 C 2,6 km/h (1 Bft)
04.11.2013 04:05 1,8 C 91 % 1008,7 hPa 0,0 l/m 1,9 km/h (1 Bft) W-SW 247 0,5 C 1,7 C 3,7 km/h (1 Bft)
04.11.2013 04:10 1,8 C 90 % 1008,1 hPa 0,0 l/m 1,9 km/h (1 Bft) W-SW 247 0,3 C 2,3 C 3,1 km/h (1 Bft)
04.11.2013 04:15 2,0 C 89 % 1008,1 hPa 0,0 l/m 1,8 km/h (1 Bft) S 180 0,4 C 2,5 C 2,3 km/h (1 Bft)
04.11.2013 04:20 2,1 C 89 % 1008,1 hPa 0,0 l/m 1,4 km/h (1 Bft) N-NW 337 0,5 C 2,7 C 7,1 km/h (2 Bft)
04.11.2013 04:25 2,3 C 88 % 1008,1 hPa 0,0 l/m 1,1 km/h (1 Bft) N-NW 337 0,5 C 2,9 C 0,0 km/h (0 Bft)
04.11.2013 04:29 2,6 C 86 % 1007,6 hPa 0,0 l/m 1,3 km/h (1 Bft) N-NO 22 0,5 C 3,1 C 0,0 km/h (0 Bft)
04.11.2013 04:30 2,6 C 86 % 1007,6 hPa 0,0 l/m 1,3 km/h (1 Bft) N-NO 22 0,5 C 3,1 C 0,0 km/h (0 Bft)
04.11.2013 04:35 2,5 C 86 % 1007,6 hPa 0,0 l/m 0,8 km/h (0 Bft) W-NW 292 0,4 C 3,1 C 0,0 km/h (0 Bft)
04.11.2013 04:40 2,3 C 86 % 1007,6 hPa 0,0 l/m 0,2 km/h (0 Bft) N-NW 337 0,2 C 3,1 C 0,0 km/h (0 Bft)
04.11.2013 04:45 2,1 C 86 % 1007,6 hPa 0,0 l/m 0,2 km/h (0 Bft) N-NW 337 0,0 C 3,0 C 0,0 km/h (0 Bft)
04.11.2013 04:50 2,1 C 85 % 1007,4 hPa 0,0 l/m 0,0 km/h (0 Bft) S 180 -0,2 C 2,8 C 0,0 km/h (0 Bft)
04.11.2013 04:55 2,3 C 85 % 1007,4 hPa 0,0 l/m 0,0 km/h (0 Bft) S 180 0,0 C 2,8 C 0,0 km/h (0 Bft)
04.11.2013 05:00 2,3 C 85 % 1007,4 hPa 0,0 l/m 0,0 km/h (0 Bft) SO 135 0,0 C 2,7 C 0,0 km/h (0 Bft)
04.11.2013 05:05 2,1 C 84 % 1007,4 hPa 0,0 l/m 0,0 km/h (0 Bft) SO 135 -0,3 C 2,5 C 0,0 km/h (0 Bft)
04.11.2013 05:10 2,1 C 84 % 1007,0 hPa 0,0 l/m 0,0 km/h (0 Bft) SO 135 -0,3 C 2,4 C 0,0 km/h (0 Bft)
04.11.2013 05:15 2,2 C 84 % 1007,0 hPa 0,0 l/m 0,0 km/h (0 Bft) SO 135 -0,2 C 2,3 C 0,0 km/h (0 Bft)
04.11.2013 05:20 2,1 C 84 % 1007,0 hPa 0,0 l/m 0,0 km/h (0 Bft) O 90 -0,3 C 2,3 C 0,0 km/h (0 Bft)
04.11.2013 05:25 2,0 C 84 % 1007,0 hPa 0,0 l/m 0,2 km/h (0 Bft) O 90 -0,4 C 2,3 C 2,4 km/h (1 Bft)
04.11.2013 05:30 2,2 C 84 % 1006,2 hPa 0,0 l/m 0,2 km/h (0 Bft) NO 45 -0,2 C 2,3 C 0,0 km/h (0 Bft)
04.11.2013 05:35 2,1 C 84 % 1006,2 hPa 0,0 l/m 0,3 km/h (0 Bft) S 180 -0,3 C 2,4 C 0,0 km/h (0 Bft)
04.11.2013 05:40 2,1 C 84 % 1006,2 hPa 0,0 l/m 0,2 km/h (0 Bft) S 180 -0,3 C 2,4 C 0,0 km/h (0 Bft)
04.11.2013 05:45 2,1 C 84 % 1006,2 hPa 0,0 l/m 0,0 km/h (0 Bft) W 270 -0,3 C 2,4 C 0,0 km/h (0 Bft)
04.11.2013 05:50 2,3 C 83 % 1005,9 hPa 0,0 l/m 0,3 km/h (0 Bft) NO 45 -0,3 C 2,5 C 0,0 km/h (0 Bft)
04.11.2013 05:55 2,5 C 83 % 1005,9 hPa 0,0 l/m 0,3 km/h (0 Bft) NW 315 -0,1 C 2,5 C 0,0 km/h (0 Bft)
04.11.2013 06:00 2,3 C 83 % 1005,9 hPa 0,0 l/m 0,2 km/h (0 Bft) N-NO 22 -0,3 C 2,6 C 0,0 km/h (0 Bft)
04.11.2013 06:05 2,1 C 83 % 1005,9 hPa 0,0 l/m 0,0 km/h (0 Bft) N-NO 22 -0,5 C 2,4 C 0,0 km/h (0 Bft)
04.11.2013 06:10 2,0 C 83 % 1005,8 hPa 0,0 l/m 0,0 km/h (0 Bft) W 270 -0,6 C 2,3 C 0,0 km/h (0 Bft)
04.11.2013 06:15 2,1 C 83 % 1005,8 hPa 0,0 l/m 0,2 km/h (0 Bft) S 180 -0,5 C 2,3 C 0,0 km/h (0 Bft)
04.11.2013 06:20 2,1 C 83 % 1005,8 hPa 0,0 l/m 0,6 km/h (0 Bft) N-NW 337 -0,5 C 2,3 C 0,0 km/h (0 Bft)
04.11.2013 06:25 2,1 C 83 % 1005,8 hPa 0,0 l/m 0,6 km/h (0 Bft) O 90 -0,5 C 2,3 C 0,0 km/h (0 Bft)
04.11.2013 06:30 2,1 C 83 % 1005,4 hPa 0,0 l/m 0,3 km/h (0 Bft) W-SW 247 -0,5 C 2,3 C 2,3 km/h (1 Bft)
04.11.2013 06:35 2,2 C 83 % 1005,4 hPa 0,0 l/m 0,3 km/h (0 Bft) SO 135 -0,4 C 2,3 C 0,0 km/h (0 Bft)
04.11.2013 06:40 2,4 C 83 % 1005,4 hPa 0,0 l/m 0,2 km/h (0 Bft) W 270 -0,2 C 2,4 C 0,0 km/h (0 Bft)
04.11.2013 06:45 2,5 C 83 % 1005,4 hPa 0,0 l/m 0,2 km/h (0 Bft) W 270 -0,1 C 2,4 C 0,0 km/h (0 Bft)
04.11.2013 06:50 2,3 C 82 % 1005,0 hPa 0,0 l/m 0,2 km/h (0 Bft) W-SW 247 -0,4 C 2,4 C 0,0 km/h (0 Bft)
04.11.2013 06:55 2,2 C 82 % 1005,0 hPa 0,0 l/m 0,0 km/h (0 Bft) NW 315 -0,5 C 2,3 C 1,9 km/h (1 Bft)
04.11.2013 07:00 2,1 C 82 % 1005,0 hPa 0,0 l/m 0,2 km/h (0 Bft) N-NO 22 -0,6 C 2,3 C 0,0 km/h (0 Bft)
04.11.2013 07:05 2,1 C 82 % 1005,0 hPa 0,0 l/m 0,2 km/h (0 Bft) NO 45 -0,6 C 2,2 C 0,0 km/h (0 Bft)
04.11.2013 07:10 2,1 C 82 % 1004,7 hPa 0,0 l/m 0,0 km/h (0 Bft) N-NO 22 -0,6 C 2,1 C 0,0 km/h (0 Bft)
04.11.2013 07:15 2,2 C 82 % 1004,7 hPa 0,0 l/m 0,0 km/h (0 Bft) N-NO 22 -0,5 C 2,1 C 0,0 km/h (0 Bft)
04.11.2013 07:20 2,0 C 83 % 1004,7 hPa 0,0 l/m 0,0 km/h (0 Bft) N-NW 337 -0,6 C 2,1 C 0,0 km/h (0 Bft)
04.11.2013 07:25 2,1 C 83 % 1004,7 hPa 0,0 l/m 0,2 km/h (0 Bft) NO 45 -0,5 C 2,1 C 2,4 km/h (1 Bft)
04.11.2013 07:30 2,4 C 83 % 1004,5 hPa 0,0 l/m 0,6 km/h (0 Bft) NO 45 -0,2 C 2,2 C 0,0 km/h (0 Bft)
04.11.2013 07:35 2,5 C 83 % 1004,5 hPa 0,0 l/m 0,5 km/h (0 Bft) NO 45 -0,1 C 2,3 C 0,0 km/h (0 Bft)
04.11.2013 07:40 2,7 C 82 % 1004,5 hPa 0,0 l/m 0,2 km/h (0 Bft) NO 45 -0,1 C 2,5 C 0,0 km/h (0 Bft)
04.11.2013 07:45 3,0 C 80 % 1004,5 hPa 0,0 l/m 0,6 km/h (0 Bft) O-SO 112 -0,1 C 2,7 C 1,9 km/h (1 Bft)
04.11.2013 07:50 3,5 C 77 % 1004,1 hPa 0,0 l/m 2,6 km/h (1 Bft) O 90 -0,1 C 3,1 C 6,6 km/h (2 Bft)
04.11.2013 07:55 3,6 C 74 % 1004,1 hPa 0,0 l/m 4,8 km/h (1 Bft) O 90 -0,6 C 2,4 C 6,9 km/h (2 Bft)
04.11.2013 08:00 3,5 C 75 % 1004,1 hPa 0,0 l/m 5,5 km/h (1 Bft) NO 45 -0,5 C 2,5 C 7,4 km/h (2 Bft)
04.11.2013 08:05 3,4 C 76 % 1004,1 hPa 0,0 l/m 3,5 km/h (1 Bft) S-SW 202 -0,4 C 3,5 C 0,0 km/h (0 Bft)
04.11.2013 08:10 3,4 C 77 % 1003,6 hPa 0,0 l/m 0,5 km/h (0 Bft) N 360 -0,2 C 3,8 C 0,0 km/h (0 Bft)
04.11.2013 08:15 3,4 C 77 % 1003,6 hPa 0,0 l/m 0,2 km/h (0 Bft) N-NO 22 -0,2 C 3,8 C 0,0 km/h (0 Bft)
04.11.2013 08:20 3,5 C 78 % 1003,6 hPa 0,0 l/m 0,2 km/h (0 Bft) W-NW 292 0,0 C 3,8 C 0,0 km/h (0 Bft)
04.11.2013 08:25 3,5 C 78 % 1003,6 hPa 0,0 l/m 0,3 km/h (0 Bft) W 270 0,0 C 3,8 C 0,0 km/h (0 Bft)
04.11.2013 08:30 3,5 C 78 % 1003,1 hPa 0,0 l/m 0,3 km/h (0 Bft) N-NW 337 0,0 C 3,8 C 0,0 km/h (0 Bft)
04.11.2013 08:35 3,6 C 78 % 1003,1 hPa 0,0 l/m 0,3 km/h (0 Bft) N-NO 22 0,1 C 3,9 C 0,0 km/h (0 Bft)
04.11.2013 08:40 3,8 C 78 % 1003,1 hPa 0,0 l/m 0,3 km/h (0 Bft) N-NW 337 0,3 C 4,0 C 0,0 km/h (0 Bft)
04.11.2013 08:45 3,8 C 78 % 1003,1 hPa 0,0 l/m 0,2 km/h (0 Bft) N-NW 337 0,3 C 4,1 C 0,0 km/h (0 Bft)
04.11.2013 08:50 3,7 C 77 % 1002,8 hPa 0,0 l/m 0,0 km/h (0 Bft) N 360 0,1 C 4,1 C 0,0 km/h (0 Bft)
04.11.2013 08:55 3,8 C 77 % 1002,8 hPa 0,0 l/m 0,5 km/h (0 Bft) O-NO 67 0,1 C 4,1 C 1,9 km/h (1 Bft)
04.11.2013 09:00 3,8 C 77 % 1002,8 hPa 0,0 l/m 0,8 km/h (0 Bft) NO 45 0,1 C 4,1 C 0,0 km/h (0 Bft)
04.11.2013 09:05 3,8 C 78 % 1002,8 hPa 0,0 l/m 0,5 km/h (0 Bft) NO 45 0,3 C 4,2 C 0,0 km/h (0 Bft)
04.11.2013 09:10 3,9 C 78 % 1002,4 hPa 0,0 l/m 0,0 km/h (0 Bft) NO 45 0,4 C 4,2 C 0,0 km/h (0 Bft)
04.11.2013 09:15 4,0 C 78 % 1002,4 hPa 0,0 l/m 0,0 km/h (0 Bft) O-NO 67 0,5 C 4,3 C 0,0 km/h (0 Bft)
04.11.2013 09:20 4,4 C 78 % 1002,4 hPa 0,0 l/m 0,0 km/h (0 Bft) S 180 0,9 C 4,7 C 0,0 km/h (0 Bft)
04.11.2013 09:23 4,6 C 79 % 1002,4 hPa 0,0 l/m 0,6 km/h (0 Bft) S 180 1,3 C 4,9 C 3,7 km/h (1 Bft)
04.11.2013 09:25 4,6 C 79 % 1002,4 hPa 0,0 l/m 0,6 km/h (0 Bft) S 180 1,3 C 4,9 C 3,7 km/h (1 Bft)
04.11.2013 09:30 5,1 C 79 % 1002,2 hPa 0,0 l/m 1,3 km/h (1 Bft) O-SO 112 1,8 C 5,4 C 0,0 km/h (0 Bft)
04.11.2013 09:35 5,6 C 78 % 1002,2 hPa 0,0 l/m 1,1 km/h (1 Bft) O-NO 67 2,1 C 5,7 C 2,3 km/h (1 Bft)
04.11.2013 09:40 5,8 C 78 % 1002,2 hPa 0,0 l/m 1,1 km/h (1 Bft) SO 135 2,3 C 6,2 C 3,2 km/h (1 Bft)
04.11.2013 09:45 5,9 C 77 % 1002,2 hPa 0,0 l/m 1,1 km/h (1 Bft) W-SW 247 2,2 C 6,4 C 0,0 km/h (0 Bft)
04.11.2013 09:50 5,9 C 77 % 1001,8 hPa 0,0 l/m 1,0 km/h (0 Bft) S-SW 202 2,2 C 6,6 C 0,0 km/h (0 Bft)
04.11.2013 09:55 6,0 C 76 % 1001,8 hPa 0,0 l/m 1,3 km/h (1 Bft) S-SO 157 2,1 C 6,6 C 2,4 km/h (1 Bft)
04.11.2013 10:00 6,4 C 76 % 1001,8 hPa 0,0 l/m 1,1 km/h (1 Bft) S-SO 157 2,5 C 6,9 C 0,0 km/h (0 Bft)
04.11.2013 10:05 6,7 C 76 % 1001,8 hPa 0,0 l/m 0,6 km/h (0 Bft) S-SO 157 2,8 C 7,3 C 0,0 km/h (0 Bft)
04.11.2013 10:10 7,1 C 76 % 1001,8 hPa 0,0 l/m 0,2 km/h (0 Bft) S 180 3,2 C 7,9 C 0,0 km/h (0 Bft)
04.11.2013 10:15 7,2 C 75 % 1001,8 hPa 0,0 l/m 0,2 km/h (0 Bft) S-SW 202 3,1 C 8,2 C 0,0 km/h (0 Bft)
04.11.2013 10:20 7,4 C 75 % 1001,8 hPa 0,0 l/m 0,5 km/h (0 Bft) SW 225 3,3 C 8,3 C 0,0 km/h (0 Bft)
04.11.2013 10:25 7,4 C 72 % 1001,8 hPa 0,0 l/m 0,5 km/h (0 Bft) W-SW 247 2,7 C 8,4 C 0,0 km/h (0 Bft)
04.11.2013 10:30 7,5 C 70 % 1001,9 hPa 0,0 l/m 0,0 km/h (0 Bft) S-SO 157 2,4 C 8,5 C 0,0 km/h (0 Bft)
04.11.2013 10:35 7,6 C 70 % 1001,9 hPa 0,0 l/m 0,2 km/h (0 Bft) S 180 2,5 C 8,5 C 0,0 km/h (0 Bft)
04.11.2013 10:40 8,2 C 69 % 1001,9 hPa 0,0 l/m 1,4 km/h (1 Bft) S-SO 157 2,9 C 8,8 C 5,5 km/h (1 Bft)
04.11.2013 10:45 8,3 C 64 % 1001,9 hPa 0,0 l/m 2,9 km/h (1 Bft) S 180 1,9 C 9,0 C 3,2 km/h (1 Bft)
04.11.2013 10:50 8,3 C 63 % 1001,9 hPa 0,0 l/m 3,5 km/h (1 Bft) SO 135 1,7 C 9,2 C 0,0 km/h (0 Bft)
04.11.2013 10:55 8,4 C 64 % 1001,9 hPa 0,0 l/m 2,3 km/h (1 Bft) O-SO 112 2,0 C 9,4 C 0,0 km/h (0 Bft)
04.11.2013 11:00 8,6 C 63 % 1001,9 hPa 0,0 l/m 0,5 km/h (0 Bft) S-SW 202 2,0 C 9,7 C 1,9 km/h (1 Bft)
04.11.2013 11:05 8,8 C 62 % 1001,9 hPa 0,0 l/m 0,3 km/h (0 Bft) S 180 1,9 C 10,0 C 3,4 km/h (1 Bft)
04.11.2013 11:10 9,3 C 59 % 1001,7 hPa 0,0 l/m 0,8 km/h (0 Bft) S-SW 202 1,7 C 10,5 C 4,8 km/h (1 Bft)
04.11.2013 11:15 9,5 C 59 % 1001,7 hPa 0,0 l/m 1,1 km/h (1 Bft) S-SO 157 1,9 C 10,9 C 2,3 km/h (1 Bft)
04.11.2013 11:20 9,4 C 57 % 1001,7 hPa 0,0 l/m 3,2 km/h (1 Bft) S 180 1,3 C 10,9 C 6,4 km/h (2 Bft)
04.11.2013 11:25 9,4 C 56 % 1001,7 hPa 0,0 l/m 3,9 km/h (1 Bft) S 180 1,1 C 10,8 C 6,4 km/h (2 Bft)
04.11.2013 11:30 9,1 C 58 % 1001,6 hPa 0,0 l/m 2,7 km/h (1 Bft) S-SO 157 1,3 C 11,0 C 2,4 km/h (1 Bft)
04.11.2013 11:35 9,1 C 58 % 1001,6 hPa 0,0 l/m 2,4 km/h (1 Bft) S-SO 157 1,3 C 11,4 C 5,0 km/h (1 Bft)
04.11.2013 11:40 9,0 C 56 % 1001,6 hPa 0,0 l/m 4,0 km/h (1 Bft) S 180 0,7 C 12,0 C 6,1 km/h (2 Bft)
04.11.2013 11:45 9,0 C 56 % 1001,6 hPa 0,0 l/m 4,3 km/h (1 Bft) S-SW 202 0,7 C 12,0 C 3,9 km/h (1 Bft)
04.11.2013 11:50 8,9 C 58 % 1001,8 hPa 0,0 l/m 2,7 km/h (1 Bft) SW 225 1,1 C 12,7 C 0,0 km/h (0 Bft)
04.11.2013 11:55 8,7 C 57 % 1001,8 hPa 0,0 l/m 1,8 km/h (1 Bft) W-SW 247 0,7 C 13,6 C 2,1 km/h (1 Bft)
04.11.2013 12:00 8,9 C 56 % 1001,8 hPa 0,0 l/m 3,1 km/h (1 Bft) W-SW 247 0,6 C 13,7 C 4,7 km/h (1 Bft)
04.11.2013 12:05 9,2 C 54 % 1001,8 hPa 0,0 l/m 4,5 km/h (1 Bft) S 180 0,4 C 14,0 C 6,1 km/h (2 Bft)
04.11.2013 12:10 9,3 C 54 % 1001,5 hPa 0,0 l/m 5,0 km/h (1 Bft) S-SO 157 0,5 C 14,3 C 10,5 km/h (2 Bft)
04.11.2013 12:15 9,5 C 53 % 1001,5 hPa 0,0 l/m 6,1 km/h (2 Bft) S 180 0,4 C 14,6 C 7,2 km/h (2 Bft)
04.11.2013 12:20 9,4 C 54 % 1001,5 hPa 0,0 l/m 6,8 km/h (2 Bft) SO 135 0,6 C 14,1 C 6,8 km/h (2 Bft)
04.11.2013 12:25 9,3 C 55 % 1001,5 hPa 0,0 l/m 6,4 km/h (2 Bft) S 180 0,7 C 14,3 C 6,8 km/h (2 Bft)
04.11.2013 12:30 9,5 C 55 % 1001,2 hPa 0,0 l/m 5,8 km/h (2 Bft) S-SW 202 0,9 C 14,6 C 4,8 km/h (1 Bft)
04.11.2013 12:35 9,8 C 54 % 1001,2 hPa 0,0 l/m 6,0 km/h (2 Bft) S-SO 157 0,9 C 14,6 C 8,7 km/h (2 Bft)
04.11.2013 12:40 10,1 C 54 % 1001,2 hPa 0,0 l/m 6,1 km/h (2 Bft) S 180 1,2 C 13,9 C 6,6 km/h (2 Bft)
04.11.2013 12:45 10,5 C 53 % 1001,2 hPa 0,0 l/m 5,8 km/h (2 Bft) S-SW 202 1,3 C 14,2 C 7,6 km/h (2 Bft)
04.11.2013 12:50 10,8 C 51 % 1001,0 hPa 0,0 l/m 6,0 km/h (2 Bft) S 180 1,1 C 14,9 C 7,4 km/h (2 Bft)
04.11.2013 12:55 10,7 C 51 % 1001,0 hPa 0,0 l/m 6,3 km/h (2 Bft) S 180 1,0 C 15,3 C 6,8 km/h (2 Bft)
04.11.2013 13:00 10,8 C 53 % 1001,0 hPa 0,0 l/m 5,5 km/h (1 Bft) S 180 1,6 C 15,6 C 11,3 km/h (2 Bft)
04.11.2013 13:05 10,6 C 53 % 1001,0 hPa 0,0 l/m 5,3 km/h (1 Bft) W-SW 247 1,4 C 15,8 C 5,5 km/h (1 Bft)
04.11.2013 13:10 10,4 C 54 % 1000,8 hPa 0,0 l/m 5,1 km/h (1 Bft) S 180 1,5 C 15,5 C 6,3 km/h (2 Bft)
04.11.2013 13:15 10,4 C 54 % 1000,8 hPa 0,0 l/m 5,6 km/h (1 Bft) S-SW 202 1,5 C 14,8 C 7,2 km/h (2 Bft)
04.11.2013 13:20 10,3 C 54 % 1000,8 hPa 0,0 l/m 6,1 km/h (2 Bft) S-SO 157 1,4 C 13,2 C 6,0 km/h (2 Bft)
04.11.2013 13:25 10,4 C 54 % 1000,8 hPa 0,0 l/m 6,3 km/h (2 Bft) S 180 1,5 C 12,6 C 6,9 km/h (2 Bft)
04.11.2013 13:30 10,4 C 54 % 1000,4 hPa 0,0 l/m 5,5 km/h (1 Bft) W-SW 247 1,5 C 12,3 C 2,3 km/h (1 Bft)
04.11.2013 13:35 10,5 C 55 % 1000,4 hPa 0,0 l/m 4,5 km/h (1 Bft) S-SO 157 1,8 C 12,2 C 5,8 km/h (2 Bft)
04.11.2013 13:40 10,5 C 56 % 1000,4 hPa 0,0 l/m 3,9 km/h (1 Bft) SW 225 2,1 C 12,1 C 4,5 km/h (1 Bft)
04.11.2013 13:45 10,6 C 55 % 1000,4 hPa 0,0 l/m 4,3 km/h (1 Bft) W-SW 247 1,9 C 12,1 C 2,1 km/h (1 Bft)
04.11.2013 13:50 10,7 C 55 % 999,9 hPa 0,0 l/m 3,5 km/h (1 Bft) S-SO 157 2,0 C 12,1 C 6,3 km/h (2 Bft)
04.11.2013 13:55 10,7 C 55 % 999,9 hPa 0,0 l/m 3,2 km/h (1 Bft) S-SW 202 2,0 C 12,1 C 3,2 km/h (1 Bft)
04.11.2013 14:00 10,8 C 55 % 999,9 hPa 0,0 l/m 3,2 km/h (1 Bft) S 180 2,1 C 12,1 C 3,1 km/h (1 Bft)
04.11.2013 14:05 10,8 C 54 % 999,9 hPa 0,0 l/m 3,1 km/h (1 Bft) S 180 1,9 C 12,2 C 1,6 km/h (1 Bft)
04.11.2013 14:10 10,8 C 55 % 999,6 hPa 0,0 l/m 3,1 km/h (1 Bft) S-SW 202 2,1 C 12,1 C 2,1 km/h (1 Bft)
04.11.2013 14:15 10,8 C 56 % 999,6 hPa 0,0 l/m 2,7 km/h (1 Bft) W-SW 247 2,4 C 12,1 C 2,3 km/h (1 Bft)
04.11.2013 14:20 10,8 C 57 % 999,6 hPa 0,0 l/m 3,5 km/h (1 Bft) S 180 2,6 C 12,0 C 3,2 km/h (1 Bft)
04.11.2013 14:23 10,7 C 55 % 999,6 hPa 0,0 l/m 4,2 km/h (1 Bft) W 270 2,0 C 11,9 C 4,8 km/h (1 Bft)
04.11.2013 14:25 10,7 C 55 % 999,6 hPa 0,0 l/m 4,2 km/h (1 Bft) W 270 2,0 C 11,9 C 4,8 km/h (1 Bft)
04.11.2013 14:30 10,7 C 56 % 999,6 hPa 0,0 l/m 4,0 km/h (1 Bft) S 180 2,3 C 11,8 C 3,1 km/h (1 Bft)
04.11.2013 14:35 10,6 C 56 % 999,6 hPa 0,0 l/m 3,9 km/h (1 Bft) W-SW 247 2,2 C 11,7 C 3,7 km/h (1 Bft)
04.11.2013 14:40 10,4 C 57 % 999,6 hPa 0,0 l/m 3,7 km/h (1 Bft) S 180 2,3 C 11,5 C 4,3 km/h (1 Bft)
04.11.2013 14:45 10,4 C 58 % 999,6 hPa 0,0 l/m 3,4 km/h (1 Bft) W-SW 247 2,5 C 11,4 C 3,7 km/h (1 Bft)
04.11.2013 14:50 10,2 C 56 % 999,5 hPa 0,0 l/m 4,2 km/h (1 Bft) S-SW 202 1,8 C 11,1 C 6,1 km/h (2 Bft)
04.11.2013 14:55 10,1 C 57 % 999,5 hPa 0,0 l/m 5,1 km/h (1 Bft) S-SO 157 2,0 C 10,9 C 7,2 km/h (2 Bft)
04.11.2013 15:00 9,9 C 57 % 999,5 hPa 0,0 l/m 5,6 km/h (1 Bft) S-SO 157 1,8 C 10,6 C 3,7 km/h (1 Bft)
04.11.2013 15:05 9,8 C 57 % 999,5 hPa 0,0 l/m 6,0 km/h (2 Bft) S-SO 157 1,7 C 10,3 C 5,5 km/h (1 Bft)
04.11.2013 15:10 9,7 C 57 % 999,6 hPa 0,0 l/m 6,0 km/h (2 Bft) SO 135 1,6 C 10,1 C 4,0 km/h (1 Bft)
04.11.2013 15:15 9,6 C 57 % 999,6 hPa 0,0 l/m 5,5 km/h (1 Bft) S-SW 202 1,5 C 10,1 C 2,9 km/h (1 Bft)
04.11.2013 15:20 9,5 C 57 % 999,6 hPa 0,0 l/m 4,5 km/h (1 Bft) S 180 1,4 C 10,2 C 4,5 km/h (1 Bft)
04.11.2013 15:25 9,3 C 57 % 999,6 hPa 0,0 l/m 4,0 km/h (1 Bft) O 90 1,2 C 10,3 C 3,5 km/h (1 Bft)
04.11.2013 15:30 9,2 C 59 % 999,4 hPa 0,0 l/m 2,9 km/h (1 Bft) SO 135 1,6 C 10,1 C 4,2 km/h (1 Bft)
04.11.2013 15:35 9,0 C 59 % 999,4 hPa 0,0 l/m 2,4 km/h (1 Bft) S-SW 202 1,4 C 10,0 C 3,2 km/h (1 Bft)
04.11.2013 15:40 8,9 C 59 % 999,4 hPa 0,0 l/m 4,0 km/h (1 Bft) SO 135 1,3 C 9,8 C 5,8 km/h (2 Bft)
04.11.2013 15:45 8,7 C 59 % 999,4 hPa 0,0 l/m 3,4 km/h (1 Bft) O 90 1,1 C 9,7 C 0,0 km/h (0 Bft)
04.11.2013 15:50 8,6 C 60 % 998,9 hPa 0,0 l/m 1,6 km/h (1 Bft) O-NO 67 1,3 C 9,4 C 3,1 km/h (1 Bft)
04.11.2013 15:55 8,5 C 60 % 998,9 hPa 0,0 l/m 1,1 km/h (1 Bft) O-NO 67 1,2 C 9,3 C 1,9 km/h (1 Bft)
04.11.2013 16:00 8,3 C 61 % 998,9 hPa 0,0 l/m 1,6 km/h (1 Bft) O 90 1,2 C 9,0 C 0,0 km/h (0 Bft)
04.11.2013 16:05 8,1 C 62 % 998,9 hPa 0,0 l/m 1,0 km/h (0 Bft) O-NO 67 1,3 C 8,8 C 1,8 km/h (1 Bft)
04.11.2013 16:10 8,0 C 62 % 998,9 hPa 0,0 l/m 0,5 km/h (0 Bft) O 90 1,2 C 8,6 C 0,0 km/h (0 Bft)
04.11.2013 16:15 7,9 C 63 % 998,9 hPa 0,0 l/m 0,5 km/h (0 Bft) O 90 1,3 C 8,4 C 0,0 km/h (0 Bft)
04.11.2013 16:20 7,8 C 63 % 998,9 hPa 0,0 l/m 1,1 km/h (1 Bft) O 90 1,2 C 8,3 C 2,1 km/h (1 Bft)
04.11.2013 16:25 7,6 C 64 % 998,9 hPa 0,0 l/m 1,4 km/h (1 Bft) O-NO 67 1,2 C 8,1 C 1,8 km/h (1 Bft)
04.11.2013 16:30 7,5 C 64 % 998,8 hPa 0,0 l/m 1,4 km/h (1 Bft) O 90 1,1 C 7,9 C 2,1 km/h (1 Bft)
04.11.2013 16:35 7,4 C 65 % 998,8 hPa 0,0 l/m 1,8 km/h (1 Bft) O 90 1,3 C 7,7 C 1,6 km/h (1 Bft)
04.11.2013 16:40 7,1 C 66 % 998,8 hPa 0,0 l/m 1,6 km/h (1 Bft) O 90 1,2 C 7,6 C 3,1 km/h (1 Bft)
04.11.2013 16:45 7,0 C 66 % 998,8 hPa 0,0 l/m 1,9 km/h (1 Bft) S 180 1,1 C 7,5 C 3,2 km/h (1 Bft)
04.11.2013 16:50 6,9 C 67 % 998,9 hPa 0,0 l/m 1,6 km/h (1 Bft) S-SO 157 1,2 C 7,5 C 0,0 km/h (0 Bft)
04.11.2013 16:55 6,9 C 67 % 998,9 hPa 0,0 l/m 0,6 km/h (0 Bft) SO 135 1,2 C 7,4 C 1,9 km/h (1 Bft)
04.11.2013 17:00 6,8 C 68 % 998,9 hPa 0,0 l/m 0,0 km/h (0 Bft) S 180 1,3 C 7,3 C 0,0 km/h (0 Bft)
04.11.2013 17:05 6,8 C 68 % 998,9 hPa 0,0 l/m 0,0 km/h (0 Bft) S-SW 202 1,3 C 7,1 C 0,0 km/h (0 Bft)
04.11.2013 17:10 6,8 C 69 % 998,9 hPa 0,0 l/m 1,0 km/h (0 Bft) O 90 1,5 C 7,1 C 3,4 km/h (1 Bft)
04.11.2013 17:15 6,8 C 70 % 998,9 hPa 0,0 l/m 2,1 km/h (1 Bft) O-NO 67 1,7 C 7,0 C 3,1 km/h (1 Bft)
04.11.2013 17:20 6,7 C 70 % 998,9 hPa 0,0 l/m 2,4 km/h (1 Bft) O 90 1,6 C 7,0 C 2,6 km/h (1 Bft)
04.11.2013 17:25 6,8 C 70 % 998,9 hPa 0,0 l/m 1,6 km/h (1 Bft) SO 135 1,7 C 6,9 C 2,1 km/h (1 Bft)
04.11.2013 17:30 6,8 C 70 % 998,9 hPa 0,0 l/m 1,9 km/h (1 Bft) O 90 1,7 C 7,0 C 4,3 km/h (1 Bft)
04.11.2013 17:35 6,8 C 70 % 998,9 hPa 0,0 l/m 2,6 km/h (1 Bft) S-SO 157 1,7 C 7,1 C 7,4 km/h (2 Bft)
04.11.2013 17:40 6,8 C 70 % 998,9 hPa 0,0 l/m 2,6 km/h (1 Bft) S-SO 157 1,7 C 7,1 C 0,0 km/h (0 Bft)
04.11.2013 17:45 6,8 C 70 % 998,9 hPa 0,0 l/m 2,3 km/h (1 Bft) S-SO 157 1,7 C 7,1 C 3,2 km/h (1 Bft)
04.11.2013 17:50 6,5 C 70 % 999,1 hPa 0,0 l/m 1,6 km/h (1 Bft) SO 135 1,4 C 7,1 C 1,8 km/h (1 Bft)
04.11.2013 17:55 6,5 C 71 % 999,1 hPa 0,0 l/m 1,4 km/h (1 Bft) S-SO 157 1,6 C 7,1 C 2,4 km/h (1 Bft)
04.11.2013 18:00 6,4 C 72 % 999,1 hPa 0,0 l/m 1,0 km/h (0 Bft) S 180 1,7 C 7,1 C 0,0 km/h (0 Bft)
04.11.2013 18:05 6,3 C 72 % 999,1 hPa 0,0 l/m 0,5 km/h (0 Bft) S-SW 202 1,6 C 6,9 C 0,0 km/h (0 Bft)
04.11.2013 18:10 6,3 C 74 % 999,1 hPa 0,0 l/m 0,0 km/h (0 Bft) O-SO 112 2,0 C 6,8 C 0,0 km/h (0 Bft)
04.11.2013 18:15 6,2 C 73 % 999,1 hPa 0,0 l/m 0,2 km/h (0 Bft) O-NO 67 1,7 C 6,7 C 2,6 km/h (1 Bft)
04.11.2013 18:20 6,2 C 75 % 999,1 hPa 0,0 l/m 0,5 km/h (0 Bft) O-SO 112 2,1 C 6,6 C 0,0 km/h (0 Bft)
04.11.2013 18:25 6,2 C 77 % 999,1 hPa 0,0 l/m 0,6 km/h (0 Bft) NO 45 2,5 C 6,5 C 0,0 km/h (0 Bft)
04.11.2013 18:30 6,0 C 76 % 998,8 hPa 0,0 l/m 0,3 km/h (0 Bft) NW 315 2,1 C 6,4 C 0,0 km/h (0 Bft)
04.11.2013 18:35 5,9 C 77 % 998,8 hPa 0,0 l/m 0,0 km/h (0 Bft) N-NO 22 2,2 C 6,3 C 0,0 km/h (0 Bft)
04.11.2013 18:40 6,0 C 77 % 998,8 hPa 0,0 l/m 0,2 km/h (0 Bft) S 180 2,3 C 6,3 C 0,0 km/h (0 Bft)
04.11.2013 18:45 5,9 C 78 % 998,8 hPa 0,0 l/m 0,2 km/h (0 Bft) S 180 2,4 C 6,3 C 0,0 km/h (0 Bft)
04.11.2013 18:50 6,0 C 78 % 998,6 hPa 0,0 l/m 0,0 km/h (0 Bft) S 180 2,5 C 6,2 C 0,0 km/h (0 Bft)
04.11.2013 18:55 5,9 C 78 % 998,6 hPa 0,0 l/m 0,2 km/h (0 Bft) S 180 2,4 C 6,2 C 0,0 km/h (0 Bft)
04.11.2013 19:00 5,9 C 78 % 998,6 hPa 0,0 l/m 0,5 km/h (0 Bft) S 180 2,4 C 6,2 C 0,0 km/h (0 Bft)
04.11.2013 19:05 5,9 C 79 % 998,6 hPa 0,0 l/m 0,5 km/h (0 Bft) S-SO 157 2,5 C 6,2 C 0,0 km/h (0 Bft)
04.11.2013 19:10 5,9 C 79 % 999,2 hPa 0,0 l/m 0,0 km/h (0 Bft) S-SO 157 2,5 C 6,1 C 0,0 km/h (0 Bft)
04.11.2013 19:15 5,8 C 78 % 999,2 hPa 0,0 l/m 0,0 km/h (0 Bft) S-SO 157 2,3 C 6,1 C 0,0 km/h (0 Bft)
04.11.2013 19:20 5,9 C 78 % 999,2 hPa 0,0 l/m 0,6 km/h (0 Bft) O 90 2,4 C 6,1 C 3,2 km/h (1 Bft)
04.11.2013 19:24 6,0 C 78 % 999,2 hPa 0,0 l/m 1,8 km/h (1 Bft) O-NO 67 2,5 C 6,2 C 3,7 km/h (1 Bft)
04.11.2013 19:25 6,0 C 78 % 999,2 hPa 0,0 l/m 1,8 km/h (1 Bft) O-NO 67 2,5 C 6,2 C 3,7 km/h (1 Bft)
04.11.2013 19:30 6,0 C 78 % 999,3 hPa 0,0 l/m 3,1 km/h (1 Bft) O-NO 67 2,5 C 6,2 C 3,5 km/h (1 Bft)
04.11.2013 19:35 6,0 C 78 % 999,3 hPa 0,0 l/m 2,7 km/h (1 Bft) O-NO 67 2,5 C 6,2 C 3,1 km/h (1 Bft)
04.11.2013 19:40 6,2 C 78 % 999,3 hPa 0,0 l/m 2,6 km/h (1 Bft) O-NO 67 2,7 C 6,2 C 3,5 km/h (1 Bft)
04.11.2013 19:45 6,1 C 77 % 999,3 hPa 0,0 l/m 2,4 km/h (1 Bft) S 180 2,4 C 6,3 C 2,1 km/h (1 Bft)
04.11.2013 19:50 5,9 C 78 % 999,5 hPa 0,0 l/m 1,1 km/h (1 Bft) SW 225 2,4 C 6,3 C 0,0 km/h (0 Bft)
04.11.2013 19:55 5,7 C 78 % 999,5 hPa 0,0 l/m 0,5 km/h (0 Bft) S 180 2,2 C 6,2 C 0,0 km/h (0 Bft)
04.11.2013 20:00 5,8 C 79 % 999,5 hPa 0,0 l/m 0,5 km/h (0 Bft) O 90 2,4 C 6,1 C 2,3 km/h (1 Bft)
04.11.2013 20:05 6,0 C 78 % 999,5 hPa 0,0 l/m 0,8 km/h (0 Bft) O-NO 67 2,5 C 6,1 C 2,9 km/h (1 Bft)
04.11.2013 20:10 6,1 C 79 % 999,0 hPa 0,0 l/m 1,8 km/h (1 Bft) NO 45 2,7 C 6,2 C 1,8 km/h (1 Bft)
04.11.2013 20:15 6,1 C 79 % 999,0 hPa 0,0 l/m 2,1 km/h (1 Bft) O-SO 112 2,7 C 6,2 C 3,1 km/h (1 Bft)
04.11.2013 20:20 6,5 C 78 % 999,0 hPa 0,0 l/m 1,8 km/h (1 Bft) SO 135 2,9 C 6,4 C 2,9 km/h (1 Bft)
04.11.2013 20:25 6,7 C 77 % 999,0 hPa 0,0 l/m 2,9 km/h (1 Bft) S 180 3,0 C 6,7 C 6,6 km/h (2 Bft)
04.11.2013 20:30 6,9 C 75 % 999,6 hPa 0,0 l/m 5,6 km/h (1 Bft) S 180 2,8 C 6,3 C 11,4 km/h (2 Bft)
04.11.2013 20:35 7,2 C 74 % 999,6 hPa 0,0 l/m 7,1 km/h (2 Bft) S 180 2,9 C 5,6 C 11,6 km/h (2 Bft)
04.11.2013 20:40 7,3 C 74 % 999,6 hPa 0,0 l/m 8,4 km/h (2 Bft) O-SO 112 3,0 C 4,7 C 19,8 km/h (3 Bft)
04.11.2013 20:45 7,3 C 73 % 999,6 hPa 0,0 l/m 7,2 km/h (2 Bft) S-SO 157 2,8 C 6,0 C 5,8 km/h (2 Bft)
04.11.2013 20:50 7,2 C 74 % 999,9 hPa 0,0 l/m 5,5 km/h (1 Bft) SO 135 2,9 C 7,2 C 5,3 km/h (1 Bft)
04.11.2013 20:55 7,3 C 74 % 999,9 hPa 0,0 l/m 6,3 km/h (2 Bft) SO 135 3,0 C 6,9 C 8,2 km/h (2 Bft)
04.11.2013 21:00 7,4 C 75 % 999,9 hPa 0,0 l/m 7,4 km/h (2 Bft) S 180 3,3 C 6,0 C 6,3 km/h (2 Bft)
04.11.2013 21:05 7,4 C 74 % 999,9 hPa 0,0 l/m 7,6 km/h (2 Bft) SO 135 3,1 C 5,7 C 6,8 km/h (2 Bft)
04.11.2013 21:10 7,4 C 75 % 999,8 hPa 0,0 l/m 6,6 km/h (2 Bft) S 180 3,3 C 6,9 C 8,2 km/h (2 Bft)
04.11.2013 21:15 7,4 C 75 % 999,8 hPa 0,0 l/m 6,4 km/h (2 Bft) S 180 3,3 C 7,0 C 7,1 km/h (2 Bft)
04.11.2013 21:20 7,4 C 75 % 999,8 hPa 0,0 l/m 5,6 km/h (1 Bft) SO 135 3,3 C 7,3 C 0,0 km/h (0 Bft)
04.11.2013 21:25 7,4 C 76 % 999,8 hPa 0,0 l/m 5,1 km/h (1 Bft) SO 135 3,5 C 7,4 C 6,6 km/h (2 Bft)
04.11.2013 21:30 7,4 C 76 % 999,9 hPa 0,0 l/m 4,0 km/h (1 Bft) SO 135 3,5 C 7,7 C 3,4 km/h (1 Bft)
04.11.2013 21:35 7,3 C 76 % 999,9 hPa 0,0 l/m 3,2 km/h (1 Bft) S-SO 157 3,4 C 7,8 C 5,8 km/h (2 Bft)
04.11.2013 21:40 7,2 C 76 % 999,9 hPa 0,0 l/m 3,2 km/h (1 Bft) SO 135 3,3 C 7,8 C 5,0 km/h (1 Bft)
04.11.2013 21:45 7,2 C 76 % 999,9 hPa 0,0 l/m 3,9 km/h (1 Bft) SO 135 3,3 C 7,6 C 2,6 km/h (1 Bft)
04.11.2013 21:50 7,3 C 76 % 1000,2 hPa 0,0 l/m 3,2 km/h (1 Bft) S-SO 157 3,4 C 7,7 C 2,1 km/h (1 Bft)
04.11.2013 21:55 7,2 C 77 % 1000,2 hPa 0,0 l/m 2,3 km/h (1 Bft) S-SO 157 3,4 C 7,7 C 3,5 km/h (1 Bft)
04.11.2013 22:00 7,1 C 77 % 1000,2 hPa 0,0 l/m 2,6 km/h (1 Bft) S-SO 157 3,3 C 7,4 C 3,9 km/h (1 Bft)
04.11.2013 22:05 7,0 C 78 % 1000,2 hPa 0,0 l/m 2,4 km/h (1 Bft) O-SO 112 3,4 C 7,4 C 1,9 km/h (1 Bft)
04.11.2013 22:10 6,9 C 78 % 1000,1 hPa 0,0 l/m 1,6 km/h (1 Bft) O-SO 112 3,3 C 7,2 C 0,0 km/h (0 Bft)
04.11.2013 22:15 6,8 C 79 % 1000,1 hPa 0,0 l/m 1,9 km/h (1 Bft) S 180 3,4 C 7,1 C 7,6 km/h (2 Bft)
04.11.2013 22:20 6,8 C 80 % 1000,1 hPa 0,0 l/m 5,0 km/h (1 Bft) S-SO 157 3,6 C 6,4 C 10,0 km/h (2 Bft)
04.11.2013 22:25 6,9 C 80 % 1000,1 hPa 0,0 l/m 7,4 km/h (2 Bft) S-SO 157 3,7 C 5,0 C 8,4 km/h (2 Bft)
04.11.2013 22:30 6,9 C 80 % 1000,1 hPa 0,0 l/m 8,0 km/h (2 Bft) S 180 3,7 C 4,5 C 9,8 km/h (2 Bft)
04.11.2013 22:35 7,1 C 80 % 1000,1 hPa 0,0 l/m 8,7 km/h (2 Bft) O-SO 112 3,9 C 3,9 C 9,5 km/h (2 Bft)
04.11.2013 22:40 6,9 C 80 % 1000,1 hPa 0,0 l/m 8,9 km/h (2 Bft) SO 135 3,7 C 3,9 C 12,2 km/h (2 Bft)
04.11.2013 22:45 6,9 C 80 % 1000,1 hPa 0,0 l/m 8,4 km/h (2 Bft) S 180 3,7 C 4,1 C 13,7 km/h (3 Bft)
04.11.2013 22:50 6,9 C 80 % 1000,3 hPa 0,0 l/m 8,4 km/h (2 Bft) S 180 3,7 C 4,1 C 7,9 km/h (2 Bft)
04.11.2013 22:55 6,9 C 80 % 1000,3 hPa 0,0 l/m 8,2 km/h (2 Bft) S 180 3,7 C 4,4 C 6,4 km/h (2 Bft)
04.11.2013 23:00 6,8 C 80 % 1000,3 hPa 0,0 l/m 7,4 km/h (2 Bft) S 180 3,6 C 5,3 C 8,5 km/h (2 Bft)
04.11.2013 23:05 6,9 C 81 % 1000,3 hPa 0,0 l/m 7,7 km/h (2 Bft) SO 135 3,9 C 4,9 C 12,2 km/h (2 Bft)
04.11.2013 23:10 6,9 C 81 % 1000,4 hPa 0,0 l/m 9,3 km/h (2 Bft) S-SO 157 3,9 C 3,3 C 9,8 km/h (2 Bft)
04.11.2013 23:15 6,9 C 81 % 1000,4 hPa 0,0 l/m 9,0 km/h (2 Bft) S-SO 157 3,9 C 3,6 C 6,1 km/h (2 Bft)
04.11.2013 23:20 6,9 C 81 % 1000,4 hPa 0,0 l/m 8,0 km/h (2 Bft) S-SW 202 3,9 C 4,5 C 16,6 km/h (3 Bft)
04.11.2013 23:25 6,9 C 81 % 1000,4 hPa 0,0 l/m 9,3 km/h (2 Bft) S 180 3,9 C 3,3 C 14,0 km/h (3 Bft)
04.11.2013 23:30 6,9 C 81 % 1000,4 hPa 0,0 l/m 10,5 km/h (2 Bft) S-SO 157 3,9 C 2,2 C 8,0 km/h (2 Bft)
04.11.2013 23:35 6,9 C 81 % 1000,4 hPa 0,0 l/m 10,0 km/h (2 Bft) S 180 3,9 C 2,6 C 8,7 km/h (2 Bft)
04.11.2013 23:40 6,8 C 81 % 1000,4 hPa 0,0 l/m 9,8 km/h (2 Bft) N 360 3,8 C 2,7 C 17,5 km/h (3 Bft)
04.11.2013 23:45 6,8 C 81 % 1000,4 hPa 0,0 l/m 10,0 km/h (2 Bft) S-SO 157 3,8 C 2,5 C 9,7 km/h (2 Bft)
04.11.2013 23:50 6,8 C 82 % 1000,6 hPa 0,0 l/m 10,3 km/h (2 Bft) S 180 3,9 C 2,2 C 9,7 km/h (2 Bft)
04.11.2013 23:55 6,6 C 82 % 1000,6 hPa 0,0 l/m 9,0 km/h (2 Bft) S 180 3,8 C 3,2 C 10,3 km/h (2 Bft)
_ Min-Zeit 02:00 12:55 19:05 - 19:15 - - 02:00 02:00 22:10
Minimum _ -1,4 C 51 % 998,6 hPa - 0,0 km/h (0 Bft) - - -3,0 C -2,1 C 0,0 km/h (0 Bft)
_ Max-Zeit 14:20 03:55 00:25 23:55 23:30 - - 23:50 13:05 20:40
Maximum _ 10,8 C 92 % 1012,1 hPa 0,0 l/m 10,5 km/h
S-SO (2 Bft)
- - 3,9 C 15,8 C 19,8 km/h
O-SO (3 Bft)
Durchschnitt _ 5,3 C 75 % 1003,1 hPa #0,0 l/m 2,3 km/h (1 Bft) S - 1,0 C 5,6 C 2,9 km/h (1 Bft)